Back to catalog

FENGYUN 1C DEB

AlivePO
NORAD 35153·DEBRIS·🇨🇳 China

Launched May 10, 1999 from Taiyuan Satellite Launch Center

Loading…

Next Passes (next 24 hours)

TLE

FreshSource: Space-Track

Epoch: Sep 13, 2026, 12:19 UTC

1 35153U 99025DMH 26256.51321771  .00002341  00000-0  28542-3 0  9994
2 35153  98.8869 180.2609 0164672 303.1743  55.3760 14.75415052 12542

Track FENGYUN 1C DEB in real time with AllMySat

Download on the App Store